STARLINK-37213, 68686

Orbit data source: Space-Track

STARLINK-37213, 68686 is a payload satellite owned by SpaceX/Seattle (US) in SSO that was launched on Sat, 11 Apr 2026 UTC via an FALCON 9 launch vehicle from the Air Force Western Test Range (AFWTR). Payload-class satellites include a variety of spacecraft equipped with specific instruments for various scientific and technological missions. These include communications satellites like Starlink; space stations such as the ISS; scientific satellites like the Hubble; Earth observation satellites from companies like Planet Labs, Umbra, and HawkEye 360; GPS; miniature CubeSats for education and research; and military/defense satellites.

Loading next visibility...
Identifier
68686, 2026-077AA
Orbit
SSO
Country
Flag of USUS
Related business
Manufacturer
SpaceX/Seattle
Mission
Operational spacecraft
Bus & Motor
STARLINK V2MO, Unknown motor
Mass
575 kg wet, ~530 kg dry
Launch date (UTC)
2026-04-11 (2 months ago)
Launch vehicle
FALCON 9
Launch site
Air Force Western Test Range (AFWTR)
Object type
Payload
Rocket body
Debris
Shape & HBR
Unknown shape, 14.5 m
Radar Cross Section
Large (>1 m²)

Expand to show TLE details & history
Last TLE update: 12 hours ago

TLE from 12 hours ago
0 STARLINK-37213
1 68686U 26077AA  26171.33973934  .00025553  00000-0  79092-3 0  9994
2 68686  97.2872  42.6034 0001955 103.1784 256.9677 15.33453797 10891
Epoch: 2026-06-20T08:09Z
TLE epoch observation values (Epoch: 2026-06-20T08:09:13.478Z)
Latitude
-0.00005°
Longitude
11.74147°
Altitude
468.931 km
Speed
7.632 km/s
True Right ascension
02h 50m 24s
True Declination
0° 00' 00"
Sunlit
Object was in daylight at epoch
Visualization orbit readout
Latitude
Unknown
Longitude
Unknown
Altitude
Unknown
Speed
Unknown
Apparent Right ascension
Unknown
Apparent Declination
Unknown
Sunlit
N/A
Visualization observer readout
Local Sidereal Time
07:12:27
Azimuth
Unknown
Elevation
Unknown
Doppler factor
Unknown
Orbital elements
Apogee altitude
463.797 km
Perigee altitude
461.123 km
Semi-major axis
6,840.597 km
Eccentricity
0.0002
Inclination
97.2872°
RAAN
42.6034°
Arg. of periapsis
103.1784°
True anomaly
256.94588°
Mean anomaly
256.9677°
Eccentric anomaly
256.95679°
Mean motion
3.83621 °/min
Orbital period
93.84 mins
BSTAR
0.00079092
Loading maneuver chart data...
Computing Atmospheric mass density...
Loading historical data...
Loading historical data...
Loading historical data...
Loading historical data...
Loading historical data...
Loading historical data...
Loading historical data...

Documentation

Showing up to 5 results
|